Location: Centerville
(32.8776°N, 96.6203°W)
Time: 10:02:22
(UTC+00:00)

Cosmos 2237 - Pass Details

Date: 23 October 2021
Orbit: 845 x 856 km, 70.8° (Epoch: 08 December)

Event Time Altitude Azimuth Distance (km) Brightness Sun altitude
Rises 11:15:38 0° 337° (NNW) 3,430 7.1 -17.8°
Reaches altitude 10° 11:18:06 10° 337° (NNW) 2,490 6.4 -17.2°
Maximum altitude 11:23:49 79° 251° (WSW) 873 4.1 -16.0°
Drops below altitude 10° 11:29:30 10° 166° (SSE) 2,471 6.9 -14.9°
Sets 11:31:56 0° 165° (SSE) 3,402 7.6 -14.3°
